Weather Roundup
Issued by NWS Corpus Christi, TX

Home | Current Version | Previous Version | Text Only | Print | Product List | Glossary On
Versions: 1 2 3 4 5 6 7 8 9 10 11 12 13 14 15 16 17 18 19 20 21 22 23 24 25 26 27 28 29 30 31 32 33 34 35 36 37 38 39 40 41 42 43 44 45 46 47 48 49 50
000
ASUS44 KCRP 310410
HRRCRP

SOUTH TEXAS REGIONAL WEATHER ROUNDUP
NATIONAL WEATHER SERVICE CORPUS CHRISTI TX
1100 PM CDT THU OCT 30 2014


TXZ229>244-310500-
...CORPUS CHRISTI AREA OBSERVATIONS...

CITY           SKY/WX    TMP DP  RH WIND       PRES   REMARKS
CORPUS CHRISTI PTCLDY    73  70  90 SE6       30.08R
NAS CORPUS CHR PTCLDY    76  72  87 E9        30.08R
ROCKPORT       CLEAR     75  69  81 SE8       30.08R
KINGSVILLE NAS PTCLDY    71  71 100 E5        30.08R
ALICE          CLEAR     71  68  90 CALM      30.08R
FALFURRIAS     CLEAR     70  67  90 CALM      30.07R
$$

...VICTORIA AREA OBSERVATIONS...

CITY           SKY/WX    TMP DP  RH WIND       PRES   REMARKS
VICTORIA       CLEAR     71  66  84 SE3       30.09R
BEEVILLE       FAIR      70  69  99 SE3       30.08S
PLEASANTON     CLEAR     70  63  77 CALM      30.10R
SAN ANTONIO    CLEAR     72  62  71 E3        30.10R
$$

...LAREDO AREA OBSERVATIONS...

CITY           SKY/WX    TMP DP  RH WIND       PRES   REMARKS
LAREDO         CLEAR     76  65  68 SE10      30.10R
COTULLA        CLEAR     76  64  66 SE10      30.08R
DEL RIO        CLEAR     69  62  78 CALM      30.08R
MCALLEN        CLEAR     73  68  84 E5        30.08R
HEBBRONVILLE   CLEAR     71  65  82 E3        30.10S
$$

...OTHER TEXAS OBSERVATIONS...

CITY           SKY/WX    TMP DP  RH WIND       PRES   REMARKS
BROWNSVILLE    CLEAR     72  69  90 E3        30.07S
HOUSTON        CLEAR     62  55  77 CALM      30.09S
COL. STATION   PTCLDY    65  52  62 NE5       30.11R
AUSTIN         MOCLDY    63  58  83 CALM      30.10R
WACO           CLOUDY    65  56  72 N3        30.13R
FORT WORTH     PTCLDY    64  57  78 NW12      30.15R
WICHITA FALLS  CLEAR     57  37  47 N8        30.21R
LUBBOCK        CLEAR     51  33  50 NE9       30.30R
EL PASO        PTCLDY    67  33  28 N9        30.22R
$$

...MARINE OBSERVATIONS...

STATION/POSITION TIME  SKY/WX   TEMP    WIND        PRES    VSBY  WAVE   SWELL
                                AIR SEA DIR/SP/G                  HT/PER HT/PER
                 (UTC)          (F)     (DEG/KT/KT) (MB)    (MI)  (FT/S) (FT/S)
PORT ARANSAS     0400            76 79  110/  9/ 11 1019.1S
BUOY 90 E PORT A 0400            74 79   60/  8/ 10 1018.8S         2/ 5   2/ 5
BUOY 45 SE BAFFI 0400            78 80   90/ 12/ 14 1018.0R         2/ 5   2/ 6
BUOY 200 E PT IS 0400            77 80   20/ 12/ 16 1017.3R         3/ 5   2/ 7
BUOY 15 E GALVES 0400            73 77   50/  6/ 10 1018.4S         1/ 5   2/ 5
$$



USA.gov is the U.S. government's official web portal to all federal, state and local government web resources and services.